Location: Poughquag
(41.6090°N, 73.6820°W)
Time: 21:15:15
(UTC-05:00)

Vanguard 1 - Pass Details

Date: 01 December 2023
Orbit: 649 x 3824 km, 34.2° (Epoch: 09 November)

Event Time Altitude Azimuth Distance (km) Brightness Sun altitude
Rises 02:14:26 0° 284° (WNW) 7,965 - -52.7°
Reaches altitude 10° 02:21:55 10° 273° (W) 6,765 - -51.4°
Maximum altitude 02:36:02 23° 232° (SW) 4,963 - -48.9°
Drops below altitude 10° 02:46:44 10° 187° (S) 4,974 - -46.9°
Exits shadow 02:48:47 - 180° (S) 5,178 13.6 -46.6°
Sets 02:51:08 0° 173° (S) 5,485 13.9 -46.1°
